Location: Bastelaar
(51.0950°N, 3.8602°E)
Time: 07:01:23
(UTC+00:00)

SMAP - Pass Details

Date: 18 November 2025
Orbit: 681 x 683 km, 98.1° (Epoch: 10 December)

Event Time Altitude Azimuth Distance (km) Brightness Sun altitude
Rises 16:35:22 0° 153° (SSE) 3,036 6.4 -6.8°
Reaches altitude 10° 16:37:37 10° 149° (SSE) 2,125 5.5 -7.2°
Maximum altitude 16:42:11 60° 71° (ENE) 786 3.1 -7.8°
Drops below altitude 10° 16:46:48 10° 352° (N) 2,139 5.5 -8.5°
Sets 16:49:04 0° 349° (N) 3,059 6.3 -8.8°
